{"data":{"norad_id":63918,"epoch":"2026-09-21T23:32:20.217984Z","epoch_age_seconds":73797,"freshness":"FRESH","line1":"1 63918U 25096A   26264.98078956  .00000065  00000+0  24867-4 0  9992","line2":"2 63918  85.9973 144.6301 0002299  94.0096 266.1350 14.12462444 70236","mean_motion":14.12462444,"eccentricity":0.0002299,"inclination_deg":85.9973,"raan_deg":144.6301,"arg_perigee_deg":94.0096,"mean_anomaly_deg":266.135,"bstar":2.4867e-5,"rev_number":7023,"period_min":101.94961332367,"perigee_km":849.29552972228,"apogee_km":852.61946737271,"semimajor_km":7229.0944985475,"source":"CELESTRAK","updated_at":"2026-09-22T09:00:29.427015Z"}}